{"data":{"norad_id":46039,"intl_designator":"2020-055N","name":"STARLINK-1569","alt_names":[],"object_type":"PAYLOAD","status":"ACTIVE","operator":null,"country":"US","launch_date":"2020-08-07","launch_site_code":"AFETR","launch_vehicle":null,"mission":null,"orbit_class":"UNKNOWN","rcs_meters":null,"size_class":null,"mass_kg":null,"dimensions":null,"purposes":["comms"],"wikipedia_slug":null,"has_3d_model":false,"image_url":null,"decayed_at":null,"tle_current":{"epoch":"2026-09-19T18:43:03.372960Z","epoch_age_seconds":80525,"freshness":"FRESH","line1":"1 46039U 20055N   26262.77990015 -.00000633  00000+0 -86210-5 0  9995","line2":"2 46039  53.1617 304.1568 0001674  63.7660 296.3514 15.31696599338615","mean_motion":15.31696599,"eccentricity":0.0001674,"inclination_deg":53.1617,"raan_deg":304.1568,"arg_perigee_deg":63.766,"mean_anomaly_deg":296.3514,"bstar":-8.621e-6,"rev_number":33861,"period_min":94.013396709253,"perigee_km":469.60362974229,"apogee_km":471.89663715457,"semimajor_km":6848.8871334484,"source":"CELESTRAK","updated_at":"2026-09-20T09:00:38.460887Z"}}}